Time,TemperatureF,DewpointF,PressureIn,WindDirection,WindDirectionDegrees,WindSpeedMPH,WindSpeedGustMPH,Humidity,HourlyPrecipIn,Conditions,Clouds,dailyrainin,SoftwareType,DateUTC
2013-03-05 00:11:00,34.3,25.0,29.72,NW,317,8.0,8.0,68,0.00,,,0.00,weatherlink.com 1.10,2013-03-05 05:11:00,
2013-03-05 00:26:00,34.2,25.0,29.73,WNW,290,0.0,7.0,68,0.00,,,0.00,weatherlink.com 1.10,2013-03-05 05:26:00,
2013-03-05 00:41:00,34.0,24.0,29.73,NW,316,2.0,6.0,68,0.00,,,0.00,weatherlink.com 1.10,2013-03-05 05:41:00,
2013-03-05 00:56:00,33.4,24.0,29.73,West,276,2.0,4.0,69,0.00,,,0.00,weatherlink.com 1.10,2013-03-05 05:56:00,
2013-03-05 01:11:00,32.9,24.0,29.74,WNW,296,5.0,7.0,70,0.00,,,0.00,weatherlink.com 1.10,2013-03-05 06:11:00,
2013-03-05 01:26:00,32.9,24.0,29.74,WSW,250,2.0,5.0,70,0.00,,,0.00,weatherlink.com 1.10,2013-03-05 06:26:00,
2013-03-05 01:41:00,33.1,24.0,29.75,NE,53,0.0,7.0,69,0.00,,,0.00,weatherlink.com 1.10,2013-03-05 06:41:00,
2013-03-05 01:56:00,33.2,24.0,29.75,WNW,283,4.0,7.0,69,0.00,,,0.00,weatherlink.com 1.10,2013-03-05 06:56:00,
2013-03-05 02:11:00,33.3,24.0,29.75,West,268,0.0,7.0,69,0.00,,,0.00,weatherlink.com 1.10,2013-03-05 07:11:00,
2013-03-05 02:27:00,33.3,24.0,29.75,WNW,290,3.0,6.0,69,0.00,,,0.00,weatherlink.com 1.10,2013-03-05 07:27:00,
2013-03-05 02:42:00,33.3,24.0,29.75,NW,316,3.0,6.0,69,0.00,,,0.00,weatherlink.com 1.10,2013-03-05 07:42:00,
2013-03-05 02:57:00,33.2,24.0,29.76,WNW,297,1.0,7.0,68,0.00,,,0.00,weatherlink.com 1.10,2013-03-05 07:57:00,
2013-03-05 03:12:00,33.2,24.0,29.76,West,280,2.0,6.0,69,0.00,,,0.00,weatherlink.com 1.10,2013-03-05 08:12:00,
2013-03-05 03:27:00,33.0,24.0,29.77,NW,312,2.0,6.0,69,0.00,,,0.00,weatherlink.com 1.10,2013-03-05 08:27:00,
2013-03-05 03:42:00,32.8,24.0,29.77,WNW,284,3.0,5.0,69,0.00,,,0.00,weatherlink.com 1.10,2013-03-05 08:42:00,
2013-03-05 03:57:00,32.7,24.0,29.78,NW,312,1.0,6.0,69,0.00,,,0.00,weatherlink.com 1.10,2013-03-05 08:57:00,
2013-03-05 04:12:00,32.6,24.0,29.79,WNW,283,1.0,8.0,70,0.00,,,0.00,weatherlink.com 1.10,2013-03-05 09:12:00,
2013-03-05 04:27:00,32.5,24.0,29.80,West,266,2.0,6.0,70,0.00,,,0.00,weatherlink.com 1.10,2013-03-05 09:27:00,
2013-03-05 04:42:00,32.1,24.0,29.80,WNW,287,2.0,7.0,71,0.00,,,0.00,weatherlink.com 1.10,2013-03-05 09:42:00,
2013-03-05 04:57:00,31.8,23.0,29.81,West,276,1.0,3.0,71,0.00,,,0.00,weatherlink.com 1.10,2013-03-05 09:57:00,
2013-03-05 05:12:00,31.7,24.0,29.82,WNW,290,2.0,5.0,72,0.00,,,0.00,weatherlink.com 1.10,2013-03-05 10:12:00,
2013-03-05 05:27:00,31.6,24.0,29.82,WNW,301,3.0,5.0,72,0.00,,,0.00,weatherlink.com 1.10,2013-03-05 10:27:00,
2013-03-05 05:42:00,31.5,23.0,29.83,WNW,284,3.0,6.0,72,0.00,,,0.00,weatherlink.com 1.10,2013-03-05 10:42:00,
2013-03-05 05:57:00,31.4,24.0,29.83,WNW,283,4.0,7.0,73,0.00,,,0.00,weatherlink.com 1.10,2013-03-05 10:57:00,
2013-03-05 06:12:00,31.5,23.0,29.83,WNW,288,3.0,7.0,72,0.00,,,0.00,weatherlink.com 1.10,2013-03-05 11:12:00,
2013-03-05 06:27:00,31.6,24.0,29.84,West,278,1.0,4.0,73,0.00,,,0.00,weatherlink.com 1.10,2013-03-05 11:27:00,
2013-03-05 06:42:00,31.9,24.0,29.85,WNW,282,1.0,4.0,72,0.00,,,0.00,weatherlink.com 1.10,2013-03-05 11:42:00,
2013-03-05 06:57:00,32.2,24.0,29.86,West,271,1.0,3.0,72,0.00,,,0.00,weatherlink.com 1.10,2013-03-05 11:57:00,
2013-03-05 07:12:00,32.8,24.0,29.87,West,281,1.0,7.0,71,0.00,,,0.00,weatherlink.com 1.10,2013-03-05 12:12:00,
2013-03-05 07:27:00,33.5,25.0,29.87,WNW,295,0.0,4.0,70,0.00,,,0.00,weatherlink.com 1.10,2013-03-05 12:27:00,
2013-03-05 07:42:00,34.2,25.0,29.88,WNW,295,4.0,6.0,69,0.00,,,0.00,weatherlink.com 1.10,2013-03-05 12:42:00,
2013-03-05 07:58:00,34.7,25.0,29.88,SW,214,1.0,6.0,68,0.00,,,0.00,weatherlink.com 1.10,2013-03-05 12:58:00,
2013-03-05 08:13:00,35.3,25.0,29.88,West,277,5.0,8.0,67,0.00,,,0.00,weatherlink.com 1.10,2013-03-05 13:13:00,
2013-03-05 08:28:00,36.2,26.0,29.89,West,278,3.0,9.0,66,0.00,,,0.00,weatherlink.com 1.10,2013-03-05 13:28:00,
2013-03-05 08:43:00,37.4,26.0,29.89,WNW,291,2.0,8.0,64,0.00,,,0.00,weatherlink.com 1.10,2013-03-05 13:43:00,
2013-03-05 08:58:00,38.5,27.0,29.89,WSW,253,0.0,9.0,63,0.00,,,0.00,weatherlink.com 1.10,2013-03-05 13:58:00,
2013-03-05 09:13:00,39.7,27.0,29.90,West,264,4.0,7.0,61,0.00,,,0.00,weatherlink.com 1.10,2013-03-05 14:13:00,
2013-03-05 09:28:00,40.3,27.0,29.90,ENE,67,5.0,6.0,60,0.00,,,0.00,weatherlink.com 1.10,2013-03-05 14:28:00,
2013-03-05 09:43:00,40.4,27.0,29.90,SSE,160,2.0,9.0,60,0.00,,,0.00,weatherlink.com 1.10,2013-03-05 14:43:00,
2013-03-05 09:58:00,41.8,28.0,29.91,East,82,2.0,8.0,59,0.00,,,0.00,weatherlink.com 1.10,2013-03-05 14:58:00,
2013-03-05 10:13:00,41.6,28.0,29.91,NW,326,3.0,7.0,59,0.00,,,0.00,weatherlink.com 1.10,2013-03-05 15:13:00,
2013-03-05 10:28:00,40.8,28.0,29.91,SSE,156,0.0,8.0,60,0.00,,,0.00,weatherlink.com 1.10,2013-03-05 15:28:00,
2013-03-05 10:43:00,40.9,29.0,29.91,ENE,72,2.0,8.0,62,0.00,,,0.00,weatherlink.com 1.10,2013-03-05 15:43:00,
2013-03-05 10:58:00,42.2,29.0,29.92,ENE,58,2.0,7.0,60,0.00,,,0.00,weatherlink.com 1.10,2013-03-05 15:58:00,
2013-03-05 11:13:00,41.7,29.0,29.92,ESE,106,1.0,10.0,61,0.00,,,0.00,weatherlink.com 1.10,2013-03-05 16:13:00,
2013-03-05 11:29:00,41.7,30.0,29.92,West,278,3.0,11.0,63,0.00,,,0.00,weatherlink.com 1.10,2013-03-05 16:29:00,
2013-03-05 11:43:00,42.3,30.0,29.92,WSW,257,2.0,8.0,62,0.00,,,0.00,weatherlink.com 1.10,2013-03-05 16:43:00,
2013-03-05 11:58:00,43.0,30.0,29.92,ENE,69,6.0,11.0,61,0.00,,,0.00,weatherlink.com 1.10,2013-03-05 16:58:00,
2013-03-05 12:13:00,43.6,31.0,29.92,East,79,4.0,5.0,61,0.00,,,0.00,weatherlink.com 1.10,2013-03-05 17:13:00,
2013-03-05 12:28:00,43.5,31.0,29.92,NE,39,2.0,9.0,61,0.00,,,0.00,weatherlink.com 1.10,2013-03-05 17:28:00,
2013-03-05 12:43:00,44.0,31.0,29.92,West,270,6.0,10.0,61,0.00,,,0.00,weatherlink.com 1.10,2013-03-05 17:43:00,
2013-03-05 12:58:00,43.2,31.0,29.91,East,95,3.0,8.0,62,0.00,,,0.00,weatherlink.com 1.10,2013-03-05 17:58:00,
2013-03-05 13:13:00,44.0,32.0,29.92,ESE,114,6.0,9.0,62,0.00,,,0.00,weatherlink.com 1.10,2013-03-05 18:13:00,
2013-03-05 13:28:00,43.7,32.0,29.93,NW,323,2.0,10.0,63,0.00,,,0.00,weatherlink.com 1.10,2013-03-05 18:28:00,
2013-03-05 13:43:00,43.5,32.0,29.93,NE,51,2.0,7.0,65,0.00,,,0.00,weatherlink.com 1.10,2013-03-05 18:43:00,
2013-03-05 13:58:00,43.4,32.0,29.93,WSW,246,5.0,7.0,64,0.00,,,0.00,weatherlink.com 1.10,2013-03-05 18:58:00,
2013-03-05 14:13:00,43.7,31.0,29.94,NW,326,6.0,8.0,62,0.00,,,0.00,weatherlink.com 1.10,2013-03-05 19:13:00,
2013-03-05 14:28:00,43.6,32.0,29.94,East,90,5.0,10.0,63,0.00,,,0.00,weatherlink.com 1.10,2013-03-05 19:28:00,
2013-03-05 14:44:00,42.8,32.0,29.95,ESE,122,6.0,9.0,65,0.00,,,0.00,weatherlink.com 1.10,2013-03-05 19:44:00,
2013-03-05 14:59:00,43.1,32.0,29.96,WSW,244,3.0,5.0,65,0.00,,,0.00,weatherlink.com 1.10,2013-03-05 19:59:00,
2013-03-05 15:14:00,42.7,32.0,29.97,NE,47,3.0,11.0,67,0.00,,,0.00,weatherlink.com 1.10,2013-03-05 20:14:00,
2013-03-05 15:29:00,42.4,32.0,29.97,West,271,2.0,8.0,68,0.00,,,0.00,weatherlink.com 1.10,2013-03-05 20:29:00,
2013-03-05 15:44:00,42.5,33.0,29.98,East,91,2.0,6.0,68,0.00,,,0.00,weatherlink.com 1.10,2013-03-05 20:44:00,
2013-03-05 15:59:00,42.2,33.0,29.98,SSE,158,2.0,7.0,69,0.00,,,0.00,weatherlink.com 1.10,2013-03-05 20:59:00,
2013-03-05 16:14:00,42.3,33.0,29.98,SW,231,2.0,6.0,69,0.00,,,0.00,weatherlink.com 1.10,2013-03-05 21:14:00,
2013-03-05 16:29:00,42.2,33.0,29.99,SW,217,2.0,7.0,69,0.00,,,0.00,weatherlink.com 1.10,2013-03-05 21:29:00,
2013-03-05 16:44:00,42.0,32.0,29.99,NE,46,3.0,7.0,69,0.00,,,0.00,weatherlink.com 1.10,2013-03-05 21:44:00,
2013-03-05 16:59:00,41.9,32.0,29.99,East,94,2.0,5.0,69,0.00,,,0.00,weatherlink.com 1.10,2013-03-05 21:59:00,
2013-03-05 17:14:00,41.7,33.0,30.00,NNE,21,2.0,7.0,70,0.00,,,0.00,weatherlink.com 1.10,2013-03-05 22:14:00,
2013-03-05 17:29:00,41.6,32.0,30.00,SE,142,1.0,4.0,70,0.00,,,0.00,weatherlink.com 1.10,2013-03-05 22:29:00,
2013-03-05 17:44:00,41.3,33.0,30.00,ESE,105,4.0,4.0,72,0.00,,,0.00,weatherlink.com 1.10,2013-03-05 22:44:00,
2013-03-05 17:59:00,40.9,33.0,30.00,East,87,3.0,3.0,74,0.00,,,0.00,weatherlink.com 1.10,2013-03-05 22:59:00,
2013-03-05 18:14:00,40.3,33.0,30.01,SSW,207,1.0,7.0,75,0.00,,,0.00,weatherlink.com 1.10,2013-03-05 23:14:00,
2013-03-05 18:29:00,39.6,33.0,30.01,East,85,2.0,4.0,76,0.00,,,0.00,weatherlink.com 1.10,2013-03-05 23:29:00,
2013-03-05 18:44:00,39.1,33.0,30.02,NE,46,1.0,3.0,78,0.00,,,0.00,weatherlink.com 1.10,2013-03-05 23:44:00,
2013-03-05 18:59:00,38.5,33.0,30.02,SW,222,0.0,4.0,80,0.00,,,0.00,weatherlink.com 1.10,2013-03-05 23:59:00,
2013-03-05 19:14:00,38.1,32.0,30.02,NNE,17,0.0,2.0,80,0.00,,,0.00,weatherlink.com 1.10,2013-03-06 00:14:00,
2013-03-05 19:29:00,37.7,33.0,30.03,North,359,0.0,2.0,82,0.00,,,0.00,weatherlink.com 1.10,2013-03-06 00:29:00,
2013-03-05 19:44:00,37.2,33.0,30.03,ENE,60,0.0,1.0,83,0.00,,,0.00,weatherlink.com 1.10,2013-03-06 00:44:00,
2013-03-05 19:59:00,36.7,32.0,30.02,WNW,300,0.0,1.0,84,0.00,,,0.00,weatherlink.com 1.10,2013-03-06 00:59:00,
2013-03-05 20:14:00,36.2,32.0,30.02,NW,321,0.0,2.0,85,0.00,,,0.00,weatherlink.com 1.10,2013-03-06 01:14:00,
2013-03-05 20:29:00,36.0,32.0,30.03,NW,314,0.0,1.0,86,0.00,,,0.00,weatherlink.com 1.10,2013-03-06 01:29:00,
2013-03-05 20:44:00,35.6,32.0,30.03,NW,315,0.0,0.0,87,0.00,,,0.00,weatherlink.com 1.10,2013-03-06 01:44:00,
2013-03-05 20:59:00,34.6,31.0,30.03,NW,314,0.0,0.0,87,0.00,,,0.00,weatherlink.com 1.10,2013-03-06 01:59:00,
2013-03-05 21:14:00,34.3,31.0,30.02,ESE,107,0.0,0.0,89,0.00,,,0.00,weatherlink.com 1.10,2013-03-06 02:14:00,
2013-03-05 21:29:00,34.3,32.0,30.02,West,270,0.0,1.0,90,0.00,,,0.00,weatherlink.com 1.10,2013-03-06 02:29:00,
2013-03-05 21:44:00,34.9,32.0,30.02,West,280,0.0,1.0,90,0.00,,,0.00,weatherlink.com 1.10,2013-03-06 02:44:00,
2013-03-05 21:59:00,34.6,32.0,30.02,North,360,0.0,0.0,89,0.00,,,0.00,weatherlink.com 1.10,2013-03-06 02:59:00,
2013-03-05 22:14:00,34.0,31.0,30.02,North,1,0.0,1.0,90,0.00,,,0.00,weatherlink.com 1.10,2013-03-06 03:14:00,
2013-03-05 22:29:00,33.6,31.0,30.03,North,360,0.0,1.0,90,0.00,,,0.00,weatherlink.com 1.10,2013-03-06 03:29:00,
2013-03-05 22:44:00,33.2,31.0,30.04,WNW,283,0.0,0.0,91,0.00,,,0.00,weatherlink.com 1.10,2013-03-06 03:44:00,
2013-03-05 22:59:00,33.1,31.0,30.04,West,280,0.0,2.0,91,0.00,,,0.00,weatherlink.com 1.10,2013-03-06 03:59:00,
2013-03-05 23:14:00,32.3,30.0,30.04,West,280,0.0,0.0,91,0.00,,,0.00,weatherlink.com 1.10,2013-03-06 04:14:00,
2013-03-05 23:29:00,32.8,31.0,30.03,NE,43,0.0,0.0,93,0.00,,,0.00,weatherlink.com 1.10,2013-03-06 04:29:00,
2013-03-05 23:44:00,33.8,32.0,30.02,ESE,109,0.0,1.0,93,0.00,,,0.00,weatherlink.com 1.10,2013-03-06 04:44:00,
2013-03-05 23:59:00,34.4,32.0,30.01,NE,54,0.0,3.0,92,0.00,,,0.00,weatherlink.com 1.10,2013-03-06 04:59:00,